Location: Newark
(27.9675°N, 86.8869°E)
Time: 23:45:59
(UTC+00:00)

A-11 Canister half - Pass Details

Date: 30 October 2019
Orbit: 1527 x 1682 km, 47.3° (Epoch: 12 November)

Event Time Altitude Azimuth Distance (km) Brightness Sun altitude
Rises 13:51:16 0° 292° (WNW) 4,754 12.5 -31.7°
Reaches altitude 10° 13:55:21 10° 306° (NW) 3,746 11.6 -32.6°
Maximum altitude 14:02:25 23° 356° (N) 2,835 10.4 -34.1°
Enters shadow 14:04:32 21° 14° (NNE) 2,921 10.3 -34.6°
